owner,sensor,date,latitude,longitude,vertical_datum,wind_speed,wind_to_direction,wind_speed_of_gust,qcFlag 
COMPS,ioos:station:USF.COMPS:C12:1,2017-04-01T00:05:00Z,27.4980,-83.7220,3.0,5.13,207.29,6.7,'1111122,1111122,1111122' 
COMPS,ioos:station:USF.COMPS:C12:1,2017-04-01T00:35:00Z,27.4980,-83.7220,3.0,5.1,208.28,6.47,'1111122,1111122,1111122' 
COMPS,ioos:station:USF.COMPS:C12:1,2017-04-01T01:05:00Z,27.4980,-83.7220,3.0,5.88,210.03,7.23,'1111122,1111122,1111122' 
COMPS,ioos:station:USF.COMPS:C12:1,2017-04-01T01:35:00Z,27.4980,-83.7220,3.0,6.17,204.94,7.84,'1111122,1111122,1111122' 
COMPS,ioos:station:USF.COMPS:C12:1,2017-04-01T02:05:00Z,27.4980,-83.7220,3.0,6.14,206.15,7.69,'1111122,1111122,1111122' 
COMPS,ioos:station:USF.COMPS:C12:1,2017-04-01T02:35:00Z,27.4980,-83.7220,3.0,5.85,210.4,7.17,'1111122,1111122,1111122' 
COMPS,ioos:station:USF.COMPS:C12:1,2017-04-01T03:05:00Z,27.4980,-83.7220,3.0,5.06,209.04,6.27,'1111122,1111122,1111122' 
COMPS,ioos:station:USF.COMPS:C12:1,2017-04-01T03:35:00Z,27.4980,-83.7220,3.0,4.84,214.94,5.75,'1111122,1111122,1111122' 
COMPS,ioos:station:USF.COMPS:C12:1,2017-04-01T04:05:00Z,27.4980,-83.7220,3.0,3.8,216.94,5.34,'1111122,1111122,1111122' 
COMPS,ioos:station:USF.COMPS:C12:1,2017-04-01T04:35:00Z,27.4980,-83.7220,3.0,3.76,226.75,4.58,'1111122,1111122,1111122' 
COMPS,ioos:station:USF.COMPS:C12:1,2017-04-01T05:05:00Z,27.4980,-83.7220,3.0,3.58,229.06,4.46,'1111122,1111122,1111122' 
COMPS,ioos:station:USF.COMPS:C12:1,2017-04-01T05:35:00Z,27.4980,-83.7220,3.0,3.41,237.37,4.38,'1111122,1111122,1111122' 
COMPS,ioos:station:USF.COMPS:C12:1,2017-04-01T06:05:00Z,27.4980,-83.7220,3.0,3.18,251.16,4.02,'1111122,1111122,1111122' 
COMPS,ioos:station:USF.COMPS:C12:1,2017-04-01T06:35:00Z,27.4980,-83.7220,3.0,2.65,271.99,3.21,'1111122,1111122,1111122' 
COMPS,ioos:station:USF.COMPS:C12:1,2017-04-01T07:05:00Z,27.4980,-83.7220,3.0,3.05,305.77,3.92,'1111122,1111122,1111122' 
COMPS,ioos:station:USF.COMPS:C12:1,2017-04-01T07:35:00Z,27.4980,-83.7220,3.0,2.77,320.03,3.63,'1111122,1111122,1111122' 
COMPS,ioos:station:USF.COMPS:C12:1,2017-04-01T08:05:00Z,27.4980,-83.7220,3.0,2.87,340.32,4.3,'1111122,1111122,1111122' 
COMPS,ioos:station:USF.COMPS:C12:1,2017-04-01T08:35:00Z,27.4980,-83.7220,3.0,2.78,357.37,3.86,'1111122,1111122,1111122' 
COMPS,ioos:station:USF.COMPS:C12:1,2017-04-01T09:05:00Z,27.4980,-83.7220,3.0,2.21,11.33,3.22,'1111122,1111122,1111122' 
COMPS,ioos:station:USF.COMPS:C12:1,2017-04-01T09:35:00Z,27.4980,-83.7220,3.0,3.73,8.1,6.46,'1111122,1111122,1111122' 
COMPS,ioos:station:USF.COMPS:C12:1,2017-04-01T10:05:00Z,27.4980,-83.7220,3.0,5.88,35.47,7.29,'1111122,1111122,1111122' 
COMPS,ioos:station:USF.COMPS:C12:1,2017-04-01T10:35:00Z,27.4980,-83.7220,3.0,6.46,34.87,8.22,'1111122,1111122,1111122' 
COMPS,ioos:station:USF.COMPS:C12:1,2017-04-01T11:05:00Z,27.4980,-83.7220,3.0,7.21,35.96,8.91,'1111122,1111122,1111122' 
COMPS,ioos:station:USF.COMPS:C12:1,2017-04-01T11:35:00Z,27.4980,-83.7220,3.0,7.23,40.64,9.03,'1111122,1111122,1111122' 
COMPS,ioos:station:USF.COMPS:C12:1,2017-04-01T12:05:00Z,27.4980,-83.7220,3.0,6.93,44.99,8.72,'1111122,1111122,1111122' 
COMPS,ioos:station:USF.COMPS:C12:1,2017-04-01T12:35:00Z,27.4980,-83.7220,3.0,6.39,54.58,7.92,'1111122,1111122,1111122' 
COMPS,ioos:station:USF.COMPS:C12:1,2017-04-01T13:05:00Z,27.4980,-83.7220,3.0,5.54,62.21,6.95,'1111122,1111122,1111122' 
COMPS,ioos:station:USF.COMPS:C12:1,2017-04-01T13:35:00Z,27.4980,-83.7220,3.0,5.41,70.39,6.72,'1111122,1111122,1111122' 
COMPS,ioos:station:USF.COMPS:C12:1,2017-04-01T14:05:00Z,27.4980,-83.7220,3.0,4.59,79.69,5.87,'1111122,1111122,1111122' 
COMPS,ioos:station:USF.COMPS:C12:1,2017-04-01T14:35:00Z,27.4980,-83.7220,3.0,3.74,86.02,4.68,'1111122,1111122,1111122' 
COMPS,ioos:station:USF.COMPS:C12:1,2017-04-01T15:05:00Z,27.4980,-83.7220,3.0,3.32,106.23,4.26,'1111122,1111122,1111122' 
COMPS,ioos:station:USF.COMPS:C12:1,2017-04-01T15:35:00Z,27.4980,-83.7220,3.0,3.18,100.44,3.9,'1111122,1111122,1111122' 
COMPS,ioos:station:USF.COMPS:C12:1,2017-04-01T16:05:00Z,27.4980,-83.7220,3.0,2.69,91.73,3.45,'1111122,1111122,1111122' 
COMPS,ioos:station:USF.COMPS:C12:1,2017-04-01T16:35:00Z,27.4980,-83.7220,3.0,3.61,86.1,4.51,'1111122,1111122,1111122' 
COMPS,ioos:station:USF.COMPS:C12:1,2017-04-01T17:05:00Z,27.4980,-83.7220,3.0,3.83,75.57,4.55,'1111122,1111122,1111122' 
COMPS,ioos:station:USF.COMPS:C12:1,2017-04-01T17:35:00Z,27.4980,-83.7220,3.0,3.98,73.3,5.21,'1111122,1111122,1111122' 
COMPS,ioos:station:USF.COMPS:C12:1,2017-04-01T18:05:00Z,27.4980,-83.7220,3.0,3.51,72.53,4.37,'1111122,1111122,1111122' 
COMPS,ioos:station:USF.COMPS:C12:1,2017-04-01T18:35:00Z,27.4980,-83.7220,3.0,2.69,89.14,3.47,'1111122,1111122,1111122' 
COMPS,ioos:station:USF.COMPS:C12:1,2017-04-01T19:05:00Z,27.4980,-83.7220,3.0,2.39,109.85,3.15,'1111122,1111122,1111122' 
COMPS,ioos:station:USF.COMPS:C12:1,2017-04-01T19:35:00Z,27.4980,-83.7220,3.0,2.37,134.24,2.95,'1111122,1111122,1111122' 
COMPS,ioos:station:USF.COMPS:C12:1,2017-04-01T20:05:00Z,27.4980,-83.7220,3.0,1.96,134.88,2.51,'1111122,1111122,1111122' 
COMPS,ioos:station:USF.COMPS:C12:1,2017-04-01T20:35:00Z,27.4980,-83.7220,3.0,1.96,124.12,2.62,'1111122,1111122,1111122' 
COMPS,ioos:station:USF.COMPS:C12:1,2017-04-01T21:05:00Z,27.4980,-83.7220,3.0,1.97,101.03,2.72,'1111122,1111122,1111122' 
COMPS,ioos:station:USF.COMPS:C12:1,2017-04-01T21:35:00Z,27.4980,-83.7220,3.0,2.75,95.57,3.3,'1111122,1111122,1111122' 
COMPS,ioos:station:USF.COMPS:C12:1,2017-04-01T22:05:00Z,27.4980,-83.7220,3.0,2.47,103.02,2.96,'1111122,1111122,1111122' 
COMPS,ioos:station:USF.COMPS:C12:1,2017-04-01T22:35:00Z,27.4980,-83.7220,3.0,2.36,112.41,2.78,'1111122,1111122,1111122' 
COMPS,ioos:station:USF.COMPS:C12:1,2017-04-01T23:05:00Z,27.4980,-83.7220,3.0,2.02,110.5,2.45,'1111122,1111122,1111122' 
COMPS,ioos:station:USF.COMPS:C12:1,2017-04-01T23:35:00Z,27.4980,-83.7220,3.0,1.76,101.75,2.12,'1111122,1111122,1111122' 
COMPS,ioos:station:USF.COMPS:C12:1,2017-04-02T00:05:00Z,27.4980,-83.7220,3.0,0.8,80.21,1.3,'1111122,1111122,1111122' 
COMPS,ioos:station:USF.COMPS:C12:1,2017-04-02T00:35:00Z,27.4980,-83.7220,3.0,0.66,87.8,0.92,'1111122,1111122,1111122' 
COMPS,ioos:station:USF.COMPS:C12:1,2017-04-02T01:05:00Z,27.4980,-83.7220,3.0,0.27,263.33,0.51,'1111122,1111122,1111122' 
COMPS,ioos:station:USF.COMPS:C12:1,2017-04-02T01:35:00Z,27.4980,-83.7220,3.0,1.32,201.17,1.98,'1111122,1111122,1111122' 
COMPS,ioos:station:USF.COMPS:C12:1,2017-04-02T02:05:00Z,27.4980,-83.7220,3.0,0.5,263.66,1.11,'1111122,1111122,1111122' 
COMPS,ioos:station:USF.COMPS:C12:1,2017-04-02T02:35:00Z,27.4980,-83.7220,3.0,0.75,286.38,1.09,'1111122,1111122,1111122' 
COMPS,ioos:station:USF.COMPS:C12:1,2017-04-02T03:05:00Z,27.4980,-83.7220,3.0,1.01,289.45,1.34,'1111122,1111122,1111122' 
COMPS,ioos:station:USF.COMPS:C12:1,2017-04-02T03:35:00Z,27.4980,-83.7220,3.0,1.84,337.56,2.37,'1111122,1111122,1111122' 
COMPS,ioos:station:USF.COMPS:C12:1,2017-04-02T04:05:00Z,27.4980,-83.7220,3.0,2.21,344.73,2.76,'1111122,1111122,1111122' 
COMPS,ioos:station:USF.COMPS:C12:1,2017-04-02T04:35:00Z,27.4980,-83.7220,3.0,1.62,351.28,2.11,'1111122,1111122,1111122' 
COMPS,ioos:station:USF.COMPS:C12:1,2017-04-02T05:05:00Z,27.4980,-83.7220,3.0,0.72,34.88,1.66,'1111122,1111122,1111122' 
COMPS,ioos:station:USF.COMPS:C12:1,2017-04-02T05:35:00Z,27.4980,-83.7220,3.0,0.76,345.31,1.22,'1111122,1111122,1111122' 
COMPS,ioos:station:USF.COMPS:C12:1,2017-04-02T06:05:00Z,27.4980,-83.7220,3.0,1.31,9.65,1.89,'1111122,1111122,1111122' 
COMPS,ioos:station:USF.COMPS:C12:1,2017-04-02T06:35:00Z,27.4980,-83.7220,3.0,1.24,36.92,1.71,'1111122,1111122,1111122' 
COMPS,ioos:station:USF.COMPS:C12:1,2017-04-02T07:05:00Z,27.4980,-83.7220,3.0,1.8,24.8,2.34,'1111122,1111122,1111122' 
COMPS,ioos:station:USF.COMPS:C12:1,2017-04-02T07:35:00Z,27.4980,-83.7220,3.0,2.66,28.64,3.3,'1111122,1111122,1111122' 
COMPS,ioos:station:USF.COMPS:C12:1,2017-04-02T08:05:00Z,27.4980,-83.7220,3.0,2.84,49.28,3.42,'1111122,1111122,1111122' 
COMPS,ioos:station:USF.COMPS:C12:1,2017-04-02T08:35:00Z,27.4980,-83.7220,3.0,3.27,50.78,4.0,'1111122,1111122,1111122' 
COMPS,ioos:station:USF.COMPS:C12:1,2017-04-02T09:05:00Z,27.4980,-83.7220,3.0,4.32,59.82,5.06,'1111122,1111122,1111122' 
COMPS,ioos:station:USF.COMPS:C12:1,2017-04-02T09:35:00Z,27.4980,-83.7220,3.0,4.54,70.91,5.56,'1111122,1111122,1111122' 
COMPS,ioos:station:USF.COMPS:C12:1,2017-04-02T10:05:00Z,27.4980,-83.7220,3.0,5.47,76.51,6.56,'1111122,1111122,1111122' 
COMPS,ioos:station:USF.COMPS:C12:1,2017-04-02T10:35:00Z,27.4980,-83.7220,3.0,5.11,87.4,6.2,'1111122,1111122,1111122' 
COMPS,ioos:station:USF.COMPS:C12:1,2017-04-02T11:05:00Z,27.4980,-83.7220,3.0,5.41,98.47,6.68,'1111122,1111122,1111122' 
COMPS,ioos:station:USF.COMPS:C12:1,2017-04-02T11:35:00Z,27.4980,-83.7220,3.0,5.37,101.19,6.49,'1111122,1111122,1111122' 
COMPS,ioos:station:USF.COMPS:C12:1,2017-04-02T12:05:00Z,27.4980,-83.7220,3.0,5.23,104.11,6.14,'1111122,1111122,1111122' 
COMPS,ioos:station:USF.COMPS:C12:1,2017-04-02T12:35:00Z,27.4980,-83.7220,3.0,5.39,102.38,6.65,'1111122,1111122,1111122' 
COMPS,ioos:station:USF.COMPS:C12:1,2017-04-02T13:05:00Z,27.4980,-83.7220,3.0,5.5,106.42,6.69,'1111122,1111122,1111122' 
COMPS,ioos:station:USF.COMPS:C12:1,2017-04-02T13:35:00Z,27.4980,-83.7220,3.0,5.07,104.65,6.21,'1111122,1111122,1111122' 
COMPS,ioos:station:USF.COMPS:C12:1,2017-04-02T14:05:00Z,27.4980,-83.7220,3.0,5.16,103.31,6.32,'1111122,1111122,1111122' 
COMPS,ioos:station:USF.COMPS:C12:1,2017-04-02T14:35:00Z,27.4980,-83.7220,3.0,4.93,110.18,6.34,'1111122,1111122,1111122' 
COMPS,ioos:station:USF.COMPS:C12:1,2017-04-02T15:05:00Z,27.4980,-83.7220,3.0,4.67,109.29,5.73,'1111122,1111122,1111122' 
COMPS,ioos:station:USF.COMPS:C12:1,2017-04-02T15:35:00Z,27.4980,-83.7220,3.0,4.96,107.9,5.9,'1111122,1111122,1111122' 
COMPS,ioos:station:USF.COMPS:C12:1,2017-04-02T16:05:00Z,27.4980,-83.7220,3.0,4.14,94.26,5.11,'1111122,1111122,1111122' 
COMPS,ioos:station:USF.COMPS:C12:1,2017-04-02T16:35:00Z,27.4980,-83.7220,3.0,4.63,89.79,5.73,'1111122,1111122,1111122' 
COMPS,ioos:station:USF.COMPS:C12:1,2017-04-02T17:05:00Z,27.4980,-83.7220,3.0,4.7,91.39,5.73,'1111122,1111122,1111122' 
COMPS,ioos:station:USF.COMPS:C12:1,2017-04-02T17:35:00Z,27.4980,-83.7220,3.0,4.43,98.63,5.27,'1111122,1111122,1111122' 
COMPS,ioos:station:USF.COMPS:C12:1,2017-04-02T18:05:00Z,27.4980,-83.7220,3.0,4.04,112.54,4.85,'1111122,1111122,1111122' 
COMPS,ioos:station:USF.COMPS:C12:1,2017-04-02T18:35:00Z,27.4980,-83.7220,3.0,3.98,118.49,4.59,'1111122,1111122,1111122' 
COMPS,ioos:station:USF.COMPS:C12:1,2017-04-02T19:05:00Z,27.4980,-83.7220,3.0,4.04,119.27,4.77,'1111122,1111122,1111122' 
COMPS,ioos:station:USF.COMPS:C12:1,2017-04-02T19:35:00Z,27.4980,-83.7220,3.0,3.68,110.68,4.47,'1111122,1111122,1111122' 
COMPS,ioos:station:USF.COMPS:C12:1,2017-04-02T20:05:00Z,27.4980,-83.7220,3.0,4.33,120.1,5.18,'1111122,1111122,1111122' 
COMPS,ioos:station:USF.COMPS:C12:1,2017-04-02T20:35:00Z,27.4980,-83.7220,3.0,3.77,120.57,4.45,'1111122,1111122,1111122' 
COMPS,ioos:station:USF.COMPS:C12:1,2017-04-02T21:05:00Z,27.4980,-83.7220,3.0,3.55,131.62,4.29,'1111122,1111122,1111122' 
COMPS,ioos:station:USF.COMPS:C12:1,2017-04-02T21:35:00Z,27.4980,-83.7220,3.0,3.26,137.71,3.83,'1111122,1111122,1111122' 
COMPS,ioos:station:USF.COMPS:C12:1,2017-04-02T22:05:00Z,27.4980,-83.7220,3.0,3.37,144.03,4.01,'1111122,1111122,1111122' 
COMPS,ioos:station:USF.COMPS:C12:1,2017-04-02T22:35:00Z,27.4980,-83.7220,3.0,3.57,152.26,4.14,'1111122,1111122,1111122' 
COMPS,ioos:station:USF.COMPS:C12:1,2017-04-02T23:05:00Z,27.4980,-83.7220,3.0,3.92,144.18,4.59,'1111122,1111122,1111122' 
COMPS,ioos:station:USF.COMPS:C12:1,2017-04-02T23:35:00Z,27.4980,-83.7220,3.0,3.53,149.52,4.26,'1111122,1111122,1111122' 
COMPS,ioos:station:USF.COMPS:C12:1,2017-04-03T00:05:00Z,27.4980,-83.7220,3.0,3.88,156.61,4.59,'1111122,1111122,1111122' 
COMPS,ioos:station:USF.COMPS:C12:1,2017-04-03T00:35:00Z,27.4980,-83.7220,3.0,4.02,161.08,4.79,'1111122,1111122,1111122' 
COMPS,ioos:station:USF.COMPS:C12:1,2017-04-03T01:05:00Z,27.4980,-83.7220,3.0,3.95,161.52,4.81,'1111122,1111122,1111122' 
COMPS,ioos:station:USF.COMPS:C12:1,2017-04-03T01:35:00Z,27.4980,-83.7220,3.0,3.92,172.13,4.73,'1111122,1111122,1111122' 
COMPS,ioos:station:USF.COMPS:C12:1,2017-04-03T02:05:00Z,27.4980,-83.7220,3.0,4.06,165.12,4.82,'1111122,1111122,1111122' 
COMPS,ioos:station:USF.COMPS:C12:1,2017-04-03T02:35:00Z,27.4980,-83.7220,3.0,3.61,167.15,4.2,'1111122,1111122,1111122' 
COMPS,ioos:station:USF.COMPS:C12:1,2017-04-03T03:05:00Z,27.4980,-83.7220,3.0,3.68,161.85,4.19,'1111122,1111122,1111122' 
COMPS,ioos:station:USF.COMPS:C12:1,2017-04-03T03:35:00Z,27.4980,-83.7220,3.0,4.2,160.37,4.98,'1111122,1111122,1111122' 
COMPS,ioos:station:USF.COMPS:C12:1,2017-04-03T04:05:00Z,27.4980,-83.7220,3.0,4.01,160.77,4.77,'1111122,1111122,1111122' 
COMPS,ioos:station:USF.COMPS:C12:1,2017-04-03T04:35:00Z,27.4980,-83.7220,3.0,4.56,162.44,5.78,'1111122,1111122,1111122' 
COMPS,ioos:station:USF.COMPS:C12:1,2017-04-03T05:05:00Z,27.4980,-83.7220,3.0,4.65,158.96,5.41,'1111122,1111122,1111122' 
COMPS,ioos:station:USF.COMPS:C12:1,2017-04-03T05:35:00Z,27.4980,-83.7220,3.0,5.77,158.87,6.98,'1111122,1111122,1111122' 
COMPS,ioos:station:USF.COMPS:C12:1,2017-04-03T06:05:00Z,27.4980,-83.7220,3.0,5.61,153.74,6.56,'1111122,1111122,1111122' 
COMPS,ioos:station:USF.COMPS:C12:1,2017-04-03T06:35:00Z,27.4980,-83.7220,3.0,5.3,152.01,6.32,'1111122,1111122,1111122' 
COMPS,ioos:station:USF.COMPS:C12:1,2017-04-03T07:05:00Z,27.4980,-83.7220,3.0,5.48,150.68,6.54,'1111122,1111122,1111122' 
COMPS,ioos:station:USF.COMPS:C12:1,2017-04-03T07:35:00Z,27.4980,-83.7220,3.0,7.02,147.48,9.28,'1111122,1111122,1111122' 
COMPS,ioos:station:USF.COMPS:C12:1,2017-04-03T08:05:00Z,27.4980,-83.7220,3.0,7.38,152.74,9.07,'1111122,1111122,1111122' 
COMPS,ioos:station:USF.COMPS:C12:1,2017-04-03T08:35:00Z,27.4980,-83.7220,3.0,6.03,145.47,7.85,'1111122,1111122,1111122' 
COMPS,ioos:station:USF.COMPS:C12:1,2017-04-03T09:05:00Z,27.4980,-83.7220,3.0,5.61,141.4,6.83,'1111122,1111122,1111122' 
COMPS,ioos:station:USF.COMPS:C12:1,2017-04-03T09:35:00Z,27.4980,-83.7220,3.0,5.39,134.78,6.41,'1111122,1111122,1111122' 
COMPS,ioos:station:USF.COMPS:C12:1,2017-04-03T10:05:00Z,27.4980,-83.7220,3.0,5.59,134.78,7.16,'1111122,1111122,1111122' 
COMPS,ioos:station:USF.COMPS:C12:1,2017-04-03T10:35:00Z,27.4980,-83.7220,3.0,5.81,133.14,6.8,'1111122,1111122,1111122' 
COMPS,ioos:station:USF.COMPS:C12:1,2017-04-03T11:05:00Z,27.4980,-83.7220,3.0,6.32,130.63,7.8,'1111122,1111122,1111122' 
COMPS,ioos:station:USF.COMPS:C12:1,2017-04-03T11:35:00Z,27.4980,-83.7220,3.0,6.71,135.88,8.43,'1111122,1111122,1111122' 
COMPS,ioos:station:USF.COMPS:C12:1,2017-04-03T12:05:00Z,27.4980,-83.7220,3.0,7.13,132.61,8.78,'1111122,1111122,1111122' 
COMPS,ioos:station:USF.COMPS:C12:1,2017-04-03T12:35:00Z,27.4980,-83.7220,3.0,6.79,135.53,8.59,'1111122,1111122,1111122' 
COMPS,ioos:station:USF.COMPS:C12:1,2017-04-03T13:05:00Z,27.4980,-83.7220,3.0,6.86,132.78,8.23,'1111122,1111122,1111122' 
COMPS,ioos:station:USF.COMPS:C12:1,2017-04-03T13:35:00Z,27.4980,-83.7220,3.0,8.13,132.75,10.2,'1111122,1111122,1111122' 
COMPS,ioos:station:USF.COMPS:C12:1,2017-04-03T14:05:00Z,27.4980,-83.7220,3.0,7.6,137.71,9.15,'1111122,1111122,1111122' 
COMPS,ioos:station:USF.COMPS:C12:1,2017-04-03T14:35:00Z,27.4980,-83.7220,3.0,7.41,143.92,9.14,'1111122,1111122,1111122' 
COMPS,ioos:station:USF.COMPS:C12:1,2017-04-03T15:05:00Z,27.4980,-83.7220,3.0,7.92,142.15,9.48,'1111122,1111122,1111122' 
COMPS,ioos:station:USF.COMPS:C12:1,2017-04-03T15:35:00Z,27.4980,-83.7220,3.0,8.86,142.14,11.2,'1111122,1111122,1111122' 
COMPS,ioos:station:USF.COMPS:C12:1,2017-04-03T16:05:00Z,27.4980,-83.7220,3.0,8.37,142.93,10.29,'1111122,1111122,1111122' 
COMPS,ioos:station:USF.COMPS:C12:1,2017-04-03T16:35:00Z,27.4980,-83.7220,3.0,7.78,149.09,9.61,'1111122,1111122,1111122' 
COMPS,ioos:station:USF.COMPS:C12:1,2017-04-03T17:05:00Z,27.4980,-83.7220,3.0,7.61,146.77,9.16,'1111122,1111122,1111122' 
COMPS,ioos:station:USF.COMPS:C12:1,2017-04-03T17:35:00Z,27.4980,-83.7220,3.0,6.9,150.66,8.27,'1111122,1111122,1111122' 
COMPS,ioos:station:USF.COMPS:C12:1,2017-04-03T18:05:00Z,27.4980,-83.7220,3.0,6.61,150.1,8.11,'1111122,1111122,1111122' 
COMPS,ioos:station:USF.COMPS:C12:1,2017-04-03T18:35:00Z,27.4980,-83.7220,3.0,6.56,152.08,7.92,'1111122,1111122,1111122' 
COMPS,ioos:station:USF.COMPS:C12:1,2017-04-03T19:05:00Z,27.4980,-83.7220,3.0,7.19,151.09,8.66,'1111122,1111122,1111122' 
COMPS,ioos:station:USF.COMPS:C12:1,2017-04-03T19:35:00Z,27.4980,-83.7220,3.0,6.99,153.99,8.44,'1111122,1111122,1111122' 
COMPS,ioos:station:USF.COMPS:C12:1,2017-04-03T20:05:00Z,27.4980,-83.7220,3.0,7.06,151.11,8.29,'1111122,1111122,1111122' 
COMPS,ioos:station:USF.COMPS:C12:1,2017-04-03T20:35:00Z,27.4980,-83.7220,3.0,6.93,151.18,8.41,'1111122,1111122,1111122' 
COMPS,ioos:station:USF.COMPS:C12:1,2017-04-03T21:05:00Z,27.4980,-83.7220,3.0,7.58,150.68,9.39,'1111122,1111122,1111122' 
COMPS,ioos:station:USF.COMPS:C12:1,2017-04-03T21:35:00Z,27.4980,-83.7220,3.0,7.91,151.14,9.73,'1111122,1111122,1111122' 
COMPS,ioos:station:USF.COMPS:C12:1,2017-04-03T22:05:00Z,27.4980,-83.7220,3.0,8.11,152.42,9.5,'1111122,1111122,1111122' 
COMPS,ioos:station:USF.COMPS:C12:1,2017-04-03T22:35:00Z,27.4980,-83.7220,3.0,7.6,154.96,9.33,'1111122,1111122,1111122' 
COMPS,ioos:station:USF.COMPS:C12:1,2017-04-03T23:05:00Z,27.4980,-83.7220,3.0,7.78,158.55,10.02,'1111122,1111122,1111122' 
COMPS,ioos:station:USF.COMPS:C12:1,2017-04-03T23:35:00Z,27.4980,-83.7220,3.0,7.26,162.57,8.74,'1111122,1111122,1111122' 
COMPS,ioos:station:USF.COMPS:C12:1,2017-04-04T00:05:00Z,27.4980,-83.7220,3.0,6.72,162.23,8.05,'1111122,1111122,1111122' 
COMPS,ioos:station:USF.COMPS:C12:1,2017-04-04T00:35:00Z,27.4980,-83.7220,3.0,5.95,162.1,7.2,'1111122,1111122,1111122' 
COMPS,ioos:station:USF.COMPS:C12:1,2017-04-04T01:05:00Z,27.4980,-83.7220,3.0,6.34,160.37,7.54,'1111122,1111122,1111122' 
COMPS,ioos:station:USF.COMPS:C12:1,2017-04-04T01:35:00Z,27.4980,-83.7220,3.0,6.02,162.82,7.21,'1111122,1111122,1111122' 
COMPS,ioos:station:USF.COMPS:C12:1,2017-04-04T02:05:00Z,27.4980,-83.7220,3.0,6.77,159.23,8.01,'1111122,1111122,1111122' 
COMPS,ioos:station:USF.COMPS:C12:1,2017-04-04T02:35:00Z,27.4980,-83.7220,3.0,8.04,158.6,9.54,'1111122,1111122,1111122' 
COMPS,ioos:station:USF.COMPS:C12:1,2017-04-04T03:05:00Z,27.4980,-83.7220,3.0,7.14,162.95,8.69,'1111122,1111122,1111122' 
COMPS,ioos:station:USF.COMPS:C12:1,2017-04-04T03:35:00Z,27.4980,-83.7220,3.0,8.13,161.24,9.92,'1111122,1111122,1111122' 
COMPS,ioos:station:USF.COMPS:C12:1,2017-04-04T04:05:00Z,27.4980,-83.7220,3.0,8.3,159.32,9.93,'1111122,1111122,1111122' 
COMPS,ioos:station:USF.COMPS:C12:1,2017-04-04T04:35:00Z,27.4980,-83.7220,3.0,7.67,164.39,9.65,'1111122,1111122,1111122' 
COMPS,ioos:station:USF.COMPS:C12:1,2017-04-04T05:05:00Z,27.4980,-83.7220,3.0,7.99,167.16,9.49,'1111122,1111122,1111122' 
COMPS,ioos:station:USF.COMPS:C12:1,2017-04-04T05:35:00Z,27.4980,-83.7220,3.0,7.92,163.78,9.38,'1111122,1111122,1111122' 
COMPS,ioos:station:USF.COMPS:C12:1,2017-04-04T06:05:00Z,27.4980,-83.7220,3.0,7.69,169.71,9.57,'1111122,1111122,1111122' 
COMPS,ioos:station:USF.COMPS:C12:1,2017-04-04T06:35:00Z,27.4980,-83.7220,3.0,7.68,167.38,9.3,'1111122,1111122,1111122' 
COMPS,ioos:station:USF.COMPS:C12:1,2017-04-04T07:05:00Z,27.4980,-83.7220,3.0,7.12,167.71,8.48,'1111122,1111122,1111122' 
COMPS,ioos:station:USF.COMPS:C12:1,2017-04-04T07:35:00Z,27.4980,-83.7220,3.0,7.18,167.99,8.88,'1111122,1111122,1111122' 
COMPS,ioos:station:USF.COMPS:C12:1,2017-04-04T08:05:00Z,27.4980,-83.7220,3.0,6.95,168.96,8.19,'1111122,1111122,1111122' 
COMPS,ioos:station:USF.COMPS:C12:1,2017-04-04T08:35:00Z,27.4980,-83.7220,3.0,6.58,168.82,8.13,'1111122,1111122,1111122' 
COMPS,ioos:station:USF.COMPS:C12:1,2017-04-04T09:05:00Z,27.4980,-83.7220,3.0,6.22,171.99,7.65,'1111122,1111122,1111122' 
COMPS,ioos:station:USF.COMPS:C12:1,2017-04-04T09:35:00Z,27.4980,-83.7220,3.0,6.41,173.08,8.22,'1111122,1111122,1111122' 
COMPS,ioos:station:USF.COMPS:C12:1,2017-04-04T10:05:00Z,27.4980,-83.7220,3.0,6.43,179.27,7.73,'1111122,1111122,1111122' 
COMPS,ioos:station:USF.COMPS:C12:1,2017-04-04T10:35:00Z,27.4980,-83.7220,3.0,5.93,168.65,7.16,'1111122,1111122,1111122' 
COMPS,ioos:station:USF.COMPS:C12:1,2017-04-04T11:05:00Z,27.4980,-83.7220,3.0,6.12,168.14,7.87,'1111122,1111122,1111122' 
COMPS,ioos:station:USF.COMPS:C12:1,2017-04-04T11:35:00Z,27.4980,-83.7220,3.0,6.01,169.81,7.05,'1111122,1111122,1111122' 
COMPS,ioos:station:USF.COMPS:C12:1,2017-04-04T12:05:00Z,27.4980,-83.7220,3.0,5.85,167.56,7.34,'1111122,1111122,1111122' 
COMPS,ioos:station:USF.COMPS:C12:1,2017-04-04T12:35:00Z,27.4980,-83.7220,3.0,6.51,169.75,7.87,'1111122,1111122,1111122' 
COMPS,ioos:station:USF.COMPS:C12:1,2017-04-04T13:05:00Z,27.4980,-83.7220,3.0,6.95,168.76,8.55,'1111122,1111122,1111122' 
COMPS,ioos:station:USF.COMPS:C12:1,2017-04-04T13:35:00Z,27.4980,-83.7220,3.0,6.35,170.22,7.68,'1111122,1111122,1111122' 
COMPS,ioos:station:USF.COMPS:C12:1,2017-04-04T14:05:00Z,27.4980,-83.7220,3.0,6.24,168.24,7.38,'1111122,1111122,1111122' 
COMPS,ioos:station:USF.COMPS:C12:1,2017-04-04T14:35:00Z,27.4980,-83.7220,3.0,6.22,167.67,7.49,'1111122,1111122,1111122' 
COMPS,ioos:station:USF.COMPS:C12:1,2017-04-04T15:05:00Z,27.4980,-83.7220,3.0,6.52,176.04,7.89,'1111122,1111122,1111122' 
COMPS,ioos:station:USF.COMPS:C12:1,2017-04-04T15:35:00Z,27.4980,-83.7220,3.0,5.27,163.08,6.64,'1111122,1111122,1111122' 
COMPS,ioos:station:USF.COMPS:C12:1,2017-04-04T16:05:00Z,27.4980,-83.7220,3.0,5.57,170.88,7.03,'1111122,1111122,1111122' 
COMPS,ioos:station:USF.COMPS:C12:1,2017-04-04T16:35:00Z,27.4980,-83.7220,3.0,6.22,166.81,8.05,'1111122,1111122,1111122' 
COMPS,ioos:station:USF.COMPS:C12:1,2017-04-04T17:05:00Z,27.4980,-83.7220,3.0,5.46,158.42,6.73,'1111122,1111122,1111122' 
COMPS,ioos:station:USF.COMPS:C12:1,2017-04-04T17:35:00Z,27.4980,-83.7220,3.0,5.38,156.99,6.85,'1111122,1111122,1111122' 
COMPS,ioos:station:USF.COMPS:C12:1,2017-04-04T18:05:00Z,27.4980,-83.7220,3.0,5.24,159.07,6.45,'1111122,1111122,1111122' 
COMPS,ioos:station:USF.COMPS:C12:1,2017-04-04T18:35:00Z,27.4980,-83.7220,3.0,5.17,149.4,6.2,'1111122,1111122,1111122' 
COMPS,ioos:station:USF.COMPS:C12:1,2017-04-04T19:05:00Z,27.4980,-83.7220,3.0,5.22,151.1,6.69,'1111122,1111122,1111122' 
COMPS,ioos:station:USF.COMPS:C12:1,2017-04-04T19:35:00Z,27.4980,-83.7220,3.0,6.08,159.09,7.7,'1111122,1111122,1111122' 
COMPS,ioos:station:USF.COMPS:C12:1,2017-04-04T20:05:00Z,27.4980,-83.7220,3.0,6.29,156.6,7.67,'1111122,1111122,1111122' 
COMPS,ioos:station:USF.COMPS:C12:1,2017-04-04T20:35:00Z,27.4980,-83.7220,3.0,6.04,156.61,7.39,'1111122,1111122,1111122' 
COMPS,ioos:station:USF.COMPS:C12:1,2017-04-04T21:05:00Z,27.4980,-83.7220,3.0,5.73,153.98,7.06,'1111122,1111122,1111122' 
COMPS,ioos:station:USF.COMPS:C12:1,2017-04-04T21:35:00Z,27.4980,-83.7220,3.0,6.39,153.85,7.55,'1111122,1111122,1111122' 
COMPS,ioos:station:USF.COMPS:C12:1,2017-04-04T22:05:00Z,27.4980,-83.7220,3.0,6.19,159.38,7.48,'1111122,1111122,1111122' 
COMPS,ioos:station:USF.COMPS:C12:1,2017-04-04T22:35:00Z,27.4980,-83.7220,3.0,5.77,157.53,6.94,'1111122,1111122,1111122' 
COMPS,ioos:station:USF.COMPS:C12:1,2017-04-05T15:05:00Z,27.4980,-83.7220,3.0,6.51,154.84,8.12,'1111122,1111122,1111122' 
COMPS,ioos:station:USF.COMPS:C12:1,2017-04-05T15:35:00Z,27.4980,-83.7220,3.0,7.19,159.37,9.14,'1111122,1111122,1111122' 
COMPS,ioos:station:USF.COMPS:C12:1,2017-04-05T16:05:00Z,27.4980,-83.7220,3.0,6.76,160.78,8.9,'1111122,1111122,1111122' 
COMPS,ioos:station:USF.COMPS:C12:1,2017-04-05T16:35:00Z,27.4980,-83.7220,3.0,6.73,160.15,8.63,'1111122,1111122,1111122' 
COMPS,ioos:station:USF.COMPS:C12:1,2017-04-05T17:05:00Z,27.4980,-83.7220,3.0,7.43,158.36,8.82,'1111122,1111122,1111122' 
COMPS,ioos:station:USF.COMPS:C12:1,2017-04-05T17:35:00Z,27.4980,-83.7220,3.0,7.27,160.75,8.9,'1111122,1111122,1111122' 
COMPS,ioos:station:USF.COMPS:C12:1,2017-04-05T18:05:00Z,27.4980,-83.7220,3.0,7.37,164.52,9.13,'1111122,1111122,1111122' 
COMPS,ioos:station:USF.COMPS:C12:1,2017-04-05T18:35:00Z,27.4980,-83.7220,3.0,7.26,169.6,9.08,'1111122,1111122,1111122' 